CZ-6A DEB, 60988

Orbit data source: Space-Track

CZ-6A DEB, 60988 is space debris in LEO originally from a launch on Tue, 06 Aug 2024 UTC launched from the Taiyaun Space Center, China (TSC). Debris objects in space refer to the collection of defunct objects orbiting the Earth. Examples of debris include non-operational satellites, rocket bodies, and fragments generated from explosions, collisions, or faulty payload assembly.

Loading next visibility...
Identifier
60988, 2024-140MP
Orbit
LEO
Country
Flag of CNCN / PRC
Related business
Manufacturer
SAST
Mission
Spacecraft
Bus & Motor
Unknown
Mass
Unknown
Launch date (UTC)
2024-08-06 (2 years ago)
Launch vehicle
Unknown
Launch site
Taiyaun Space Center, China (TSC)
Object type
Payload
Rocket body
Debris
Shape & HBR
Unknown shape, 0.2 m
Radar Cross Section
Medium (>0.1 m² and <1 m²)

Expand to show TLE details & history
Last TLE update: 13 hours ago

TLE from 13 hours ago
0 CZ-6A DEB
1 60988U 24140MP  26171.30049708  .00000338  00000-0  21482-3 0  9994
2 60988  89.0828 283.5477 0151816 264.7984  93.5852 13.96418751 93140
Epoch: 2026-06-20T07:12Z
TLE epoch observation values (Epoch: 2026-06-20T07:12:42.947Z)
Latitude
-0.00014°
Longitude
-93.14834°
Altitude
917.83 km
Speed
7.389 km/s
True Right ascension
18h 54m 11s
True Declination
0° 00' 00"
Sunlit
Object was in full shadow at epoch
Visualization orbit readout
Latitude
Unknown
Longitude
Unknown
Altitude
Unknown
Speed
Unknown
Apparent Right ascension
Unknown
Apparent Declination
Unknown
Sunlit
N/A
Visualization observer readout
Local Sidereal Time
07:22:03
Azimuth
Unknown
Elevation
Unknown
Doppler factor
Unknown
Orbital elements
Apogee altitude
1,013.749 km
Perigee altitude
792.664 km
Semi-major axis
7,281.344 km
Eccentricity
0.01518
Inclination
89.0828°
RAAN
283.5477°
Arg. of periapsis
264.7984°
True anomaly
95.31916°
Mean anomaly
93.5852°
Eccentric anomaly
94.45242°
Mean motion
3.49322 °/min
Orbital period
103.06 mins
BSTAR
0.00021482
Loading maneuver chart data...
Computing Atmospheric mass density...
Loading historical data...
Loading historical data...
Loading historical data...
Loading historical data...
Loading historical data...
Loading historical data...
Loading historical data...

Documentation

Showing up to 5 results
|